Location: Valentinhaft
(48.0370°N, 13.1914°E)
Time: 14:11:37
(UTC+01:00)

ISS - Visible Passes

Search period start: 22 March 2019 00:00
Search period end: 01 April 2019 01:00
Orbit: 406 x 411 km, 51.6° (Epoch: 22 March)

Date Brightness Start Highest point End Pass type
(mag) Time Alt. Az. Time Alt. Az. Time Alt. Az.
22 Mar -2.8 19:37:22 10° SSW 19:40:14 28° SE 19:40:45 26° SE visible
22 Mar -0.7 21:13:19 10° WSW 21:13:32 11° WSW 21:13:32 11° WSW visible
23 Mar -3.7 20:22:15 10° WSW 20:25:12 68° SW 20:25:12 68° SW visible
24 Mar -3.7 19:31:19 10° SW 19:34:32 56° SSE 19:36:40 19° ENE visible
24 Mar -1.4 21:07:57 10° W 21:09:26 23° WNW 21:09:26 23° WNW visible
25 Mar -3.4 20:16:46 10° W 20:20:02 60° NNW 20:20:44 46° NE visible
26 Mar -3.8 19:25:37 10° WSW 19:28:56 81° NNW 19:31:55 12° ENE visible
26 Mar -1.9 21:02:35 10° WNW 21:04:40 31° NW 21:04:40 31° NW visible
27 Mar -2.9 20:11:21 10° W 20:14:33 45° N 20:15:45 30° NE visible
27 Mar -0.4 21:48:12 10° WNW 21:48:29 12° WNW 21:48:29 12° WNW visible
28 Mar -3.2 19:20:07 10° W 19:23:22 53° NNW 19:26:37 10° ENE visible
28 Mar -2.3 20:57:05 10° WNW 20:59:29 37° NNW 20:59:29 37° NNW visible
29 Mar -2.9 20:05:53 10° WNW 20:09:03 42° N 20:10:27 26° NE visible
29 Mar -0.7 21:42:34 10° WNW 21:43:11 15° WNW 21:43:11 15° WNW visible
30 Mar -2.9 19:14:38 10° WNW 19:17:49 43° N 19:21:00 10° ENE visible
30 Mar -2.9 20:51:26 10° WNW 20:54:05 48° NNW 20:54:05 48° NNW visible
31 Mar -3.1 21:00:16 10° WNW 21:03:30 48° N 21:04:59 26° ENE visible
31 Mar -0.9 22:36:53 10° WNW 22:37:42 16° WNW 22:37:42 16° WNW visible
